Regional Weather Roundup
Issued by NWS New Orleans/Baton Rouge, LA

Home | Current Version | Previous Version | Text Only | Print | Product List | Glossary On
Versions: 1 2 3 4 5 6 7 8 9 10 11 12 13 14 15 16 17 18 19 20 21 22 23 24 25 26 27 28 29 30 31 32 33 34 35 36 37 38 39 40 41 42 43 44 45 46 47 48 49 50
000
ASUS44 KLIX 230112
RWRLIX
NEW ORLEANS REGIONAL WEATHER ROUNDUP
NATIONAL WEATHER SERVICE NEW ORLEANS LA
700 PM CST THU FEB 22 2018

NOTE: "FAIR" INDICATES FEW OR NO CLOUDS BELOW 12,000 FEET WITH NO
      SIGNIFICANT WEATHER AND/OR OBSTRUCTIONS TO VISIBILITY.
      SKY/WX - SKY CONDITION AND SIGNIFICANT WEATHER.
      TMP - AIR TEMPERATURE.     DP    - DEWPOINT TEMPERATURE.
      RH  - RELATIVE HUMIDITY.   PRES  - PRESSURE.
      HI  - HEAT INDEX.          WCI   - WIND CHILL INDEX.

*  THESE STATIONS ARE NOT NWS OR FAA STATIONS AND ARE NOT UNDER
   NWS QUALITY CONTROL.

LAZ038-040-048-061>063-065>067-069-230200-
SOUTHEAST LOUISIANA

CITY           SKY/WX    TMP DP  RH WIND       PRES   REMARKS
N.O. INTL ARPT CLOUDY    76  72  87 SE13      30.27R
N.O. LAKEFRONT CLOUDY    74  71  91 SE12      30.28R
N.O. DOWNTOWN* CLOUDY    75  70  84 SE8       30.28R
RESERVE*       FAIR      76  69  78 S9        30.26R
SLIDELL        CLOUDY    74  70  87 SE8       30.28R
BATON ROUGE    FAIR      78  63  59 S13       30.23R
BOOTHVILLE     MOCLDY    70  68  93 E7        30.29R FOG
BELLE CHASSE   MOCLDY    73  73 100 SE9       30.27R
BOGALUSA*      FAIR      75  67  78 S10       30.28S
GALLIANO*      CLOUDY    75  69  80 SE7       30.27R
NEW ROADS*     FAIR      76  62  60 S7        30.23R
GONZALES*      CLOUDY    76  65  69 S7        30.24R
HAMMOND*       CLOUDY    73  70  88 SE10G16   30.26S
HOUMA*         PTCLDY    75  70  83 S12       30.25S
PORT FOURCHON* PTCLDY    75  72  88 SE9       30.27R

$$

MSZ070-080>082-230200-
SOUTHERN MISSISSIPPI

CITY           SKY/WX    TMP DP  RH WIND       PRES   REMARKS
MCCOMB         FAIR      75  64  68 SE10      30.25R
GULFPORT       CLOUDY    73  71  93 SE15      30.29S
BILOXI         CLOUDY    72  70  94 SE10      30.30R
PASCAGOULA     MOCLDY    72  68  87 SE9       30.31R
STENNIS ARPT*  CLOUDY    73  70  88 SE8       30.29R

$$

COASTAL OBSERVATIONS
LAKE AND NEARSHORE STATIONS

STATION/POSITION TIME  SKY/WX   TEMP    WIND        PRES    WAVE
                                AIR SEA DIR/SP/G            HT/PER
                 (UTC)          (F)     (DEG/KT/KT) (MB)    (FT/S)
WAVELAND YACHT   0042            73 75  130/ 12/ 14 1025.8
GRAND ISLE       0042            72 70  120/  4/  7 1025.3
SOUTHWEST PASS   0042            69 49  120/ 12/ 15 1025.7
NEW CANAL        0042            76 65  120/  2/  5 1024.9
SHELL BEACH      0042            73 78  110/ 13/ 15 1025.6

OFFSHORE STATIONS

STATION/POSITION TIME  SKY/WX   TEMP    WIND        PRES    WAVE
                                AIR SEA DIR/SP/G            HT/PER
                 (UTC)          (F)     (DEG/KT/KT) (MB)    (FT/S)
64 S DAUPHIN ISL 0050               76  110/ 16/ 17 1026.2    5/ 7

$$




USA.gov is the U.S. government's official web portal to all federal, state and local government web resources and services.